Retour au catalogue

KONDOR FKA 2

ActifMilitaireSSO
NORAD 62138·PAYLOAD·🇷🇺 Russia

Lancé Nov 29, 2024 depuis Vostochny Cosmodrome

Loading…

Prochains Passages (prochaines 24 heures)

TLE

FraisSource: Space-Track

Époque: Sep 14, 2026, 20:35 UTC

1 62138U 24223A   26257.85787051  .00002933  00000-0  14049-3 0  9994
2 62138  97.4428 100.0093 0001769  88.6581 271.4857 15.19715420 99320

Suivez KONDOR FKA 2 en temps réel avec AllMySat

Download on the App Store